AZU2896 SBFL-SBCF

Flight info

Callsign AZU2896
Flight time N/A
Altitude 37000
Route UBROS UM540 ANISE UZ23 KIBAP
Aircraft A20N/M-SDE2E3FGHIRWXY/LB1

Departure

Time 2026-05-03 20:30
Airport Hercílio Luz International Airport (SBFL)

Arrival

Time N/A
Airport Tancredo Neves International Airport (SBCF)
Time Latitude Longitude Altitude Speed Heading
2026-05-03 20:15 -27.67344 -48.54319 30 ft 0 kts 302°
2026-05-03 20:21 -27.67341 -48.54323 30 ft 1 kts 302°
2026-05-03 20:21 -27.67334 -48.54336 30 ft 2 kts 302°
2026-05-03 20:21 -27.67322 -48.54356 30 ft 3 kts 303°
2026-05-03 20:21 -27.67307 -48.54383 30 ft 4 kts 302°
2026-05-03 20:22 -27.67289 -48.54416 30 ft 5 kts 302°
2026-05-03 20:22 -27.67264 -48.54462 30 ft 7 kts 301°
2026-05-03 20:22 -27.67236 -48.54515 30 ft 7 kts 301°
2026-05-03 20:22 -27.67207 -48.54567 31 ft 8 kts 301°
2026-05-03 20:23 -27.67166 -48.54618 31 ft 10 kts 333°
2026-05-03 20:23 -27.67092 -48.54611 31 ft 11 kts 28°
2026-05-03 20:23 -27.67024 -48.54621 31 ft 10 kts 309°
2026-05-03 20:23 -27.66985 -48.54693 31 ft 10 kts 301°
2026-05-03 20:24 -27.66948 -48.54763 32 ft 10 kts 300°
2026-05-03 20:24 -27.66912 -48.54832 32 ft 10 kts 302°
2026-05-03 20:24 -27.66875 -48.54900 32 ft 10 kts 301°
2026-05-03 20:24 -27.66839 -48.54968 32 ft 10 kts 301°
2026-05-03 20:25 -27.66803 -48.55035 32 ft 9 kts 301°
2026-05-03 20:25 -27.66763 -48.55096 33 ft 9 kts 318°
2026-05-03 20:25 -27.66703 -48.55127 33 ft 9 kts 345°
2026-05-03 20:25 -27.66687 -48.55132 33 ft 0 kts 347°
2026-05-03 20:28 -27.66686 -48.55132 33 ft 1 kts 347°
2026-05-03 20:28 -27.66658 -48.55139 33 ft 7 kts 347°
2026-05-03 20:28 -27.66596 -48.55139 33 ft 9 kts 25°
2026-05-03 20:28 -27.66581 -48.55092 33 ft 3 kts 112°
2026-05-03 20:29 -27.66585 -48.55083 33 ft 0 kts 119°
2026-05-03 20:29 -27.66667 -48.54930 32 ft 61 kts 121°
2026-05-03 20:30 -27.67019 -48.54275 31 ft 131 kts 121°
2026-05-03 20:30 -27.67588 -48.53215 126 ft 177 kts 122°
2026-05-03 20:30 -27.68234 -48.52013 823 ft 180 kts 121°
2026-05-03 20:30 -27.68852 -48.50829 1702 ft 177 kts 120°
2026-05-03 20:31 -27.69393 -48.49596 2315 ft 185 kts 102°
2026-05-03 20:31 -27.69154 -48.48127 2758 ft 205 kts 57°
2026-05-03 20:31 -27.68037 -48.47035 3262 ft 226 kts 30°
2026-05-03 20:31 -27.66647 -48.46204 4094 ft 230 kts 31°
2026-05-03 20:32 -27.65290 -48.45306 4968 ft 230 kts 31°
2026-05-03 20:32 -27.63922 -48.44367 5577 ft 232 kts 30°
2026-05-03 20:32 -27.62534 -48.43408 6155 ft 240 kts 30°
2026-05-03 20:32 -27.61127 -48.42432 7043 ft 240 kts 30°
2026-05-03 20:33 -27.59685 -48.41432 7855 ft 245 kts 29°
2026-05-03 20:33 -27.58222 -48.40420 8603 ft 251 kts 29°
2026-05-03 20:33 -27.56724 -48.39383 9322 ft 257 kts 29°
2026-05-03 20:33 -27.55184 -48.38327 10048 ft 263 kts 27°
2026-05-03 20:34 -27.53557 -48.37396 10782 ft 266 kts 20°
2026-05-03 20:34 -27.51823 -48.36594 11288 ft 281 kts 18°
2026-05-03 20:34 -27.49942 -48.35763 11728 ft 299 kts 18°
2026-05-03 20:34 -27.47942 -48.34884 12142 ft 317 kts 17°
2026-05-03 20:35 -27.45842 -48.33954 12654 ft 330 kts 17°
2026-05-03 20:35 -27.43673 -48.32987 13375 ft 335 kts 17°
2026-05-03 20:35 -27.41535 -48.32031 14116 ft 338 kts 17°
2026-05-03 20:35 -27.39339 -48.31052 14835 ft 341 kts 17°
2026-05-03 20:36 -27.37111 -48.30059 15547 ft 345 kts 17°
2026-05-03 20:36 -27.34877 -48.29063 16227 ft 349 kts 17°
2026-05-03 20:36 -27.32620 -48.28057 16904 ft 353 kts 17°
2026-05-03 20:36 -27.30317 -48.27031 17574 ft 357 kts 17°
2026-05-03 20:37 -27.28011 -48.26003 18208 ft 361 kts 17°
2026-05-03 20:37 -27.25679 -48.24964 18849 ft 364 kts 17°
2026-05-03 20:37 -27.23311 -48.23909 19459 ft 368 kts 17°
2026-05-03 20:37 -27.20917 -48.22842 20058 ft 372 kts 17°
2026-05-03 20:38 -27.18486 -48.21761 20644 ft 376 kts 17°
2026-05-03 20:38 -27.16054 -48.20681 21210 ft 381 kts 17°
2026-05-03 20:38 -27.13561 -48.19573 21786 ft 385 kts 16°
2026-05-03 20:38 -27.11068 -48.18466 22341 ft 389 kts 16°
2026-05-03 20:39 -27.08531 -48.17341 22899 ft 393 kts 16°
2026-05-03 20:39 -27.06008 -48.16220 23436 ft 397 kts 15°
2026-05-03 20:39 -27.03398 -48.15062 23978 ft 401 kts 15°
2026-05-03 20:39 -27.00796 -48.13909 24506 ft 405 kts 15°
2026-05-03 20:40 -26.98185 -48.12752 24993 ft 409 kts 15°
2026-05-03 20:40 -26.95509 -48.11568 25489 ft 413 kts 15°
2026-05-03 20:40 -26.92836 -48.10384 26005 ft 416 kts 14°
2026-05-03 20:40 -26.90149 -48.09195 26506 ft 419 kts 14°
2026-05-03 20:41 -26.87396 -48.07980 26985 ft 422 kts 14°
2026-05-03 20:41 -26.84652 -48.06773 27443 ft 425 kts 14°
2026-05-03 20:41 -26.81884 -48.05556 27896 ft 428 kts 14°
2026-05-03 20:41 -26.79070 -48.04318 28323 ft 431 kts 13°
2026-05-03 20:42 -26.76282 -48.03091 28730 ft 434 kts 13°
2026-05-03 20:42 -26.73484 -48.01862 29109 ft 437 kts 13°
2026-05-03 20:42 -26.70634 -48.00610 29482 ft 440 kts 13°
2026-05-03 20:42 -26.67787 -47.99358 29855 ft 442 kts 13°
2026-05-03 20:43 -26.64901 -47.98091 30201 ft 445 kts 12°
2026-05-03 20:43 -26.62019 -47.96826 30540 ft 447 kts 12°
2026-05-03 20:43 -26.59108 -47.95550 30857 ft 449 kts 12°
2026-05-03 20:43 -26.56205 -47.94277 31140 ft 452 kts 12°
2026-05-03 20:44 -26.53272 -47.92992 31427 ft 454 kts 12°
2026-05-03 20:44 -26.50315 -47.91696 31709 ft 457 kts 12°
2026-05-03 20:44 -26.47346 -47.90398 32010 ft 458 kts 12°
2026-05-03 20:44 -26.44394 -47.89106 32291 ft 460 kts 12°
2026-05-03 20:45 -26.41378 -47.87785 32663 ft 460 kts 12°
2026-05-03 20:45 -26.38410 -47.86486 33056 ft 458 kts 12°
2026-05-03 20:45 -26.35445 -47.85188 33435 ft 457 kts 12°
2026-05-03 20:45 -26.32483 -47.83893 33823 ft 456 kts 11°
2026-05-03 20:46 -26.29564 -47.82618 34206 ft 455 kts 11°
2026-05-03 20:46 -26.26625 -47.81337 34545 ft 455 kts 11°
2026-05-03 20:46 -26.23644 -47.80038 34878 ft 455 kts 11°
2026-05-03 20:46 -26.20718 -47.78762 35219 ft 454 kts 11°
2026-05-03 20:47 -26.17775 -47.77477 35557 ft 454 kts 12°
2026-05-03 20:47 -26.14861 -47.76069 35810 ft 460 kts 15°
2026-05-03 20:47 -26.11997 -47.74448 36024 ft 467 kts 19°
2026-05-03 20:47 -26.09193 -47.72597 36228 ft 474 kts 24°
2026-05-03 20:48 -26.06438 -47.70506 36445 ft 479 kts 27°
2026-05-03 20:48 -26.03745 -47.68359 36656 ft 480 kts 27°
2026-05-03 20:48 -26.01038 -47.66187 36869 ft 481 kts 27°
2026-05-03 20:48 -25.98286 -47.63981 37080 ft 482 kts 27°
2026-05-03 20:49 -25.95566 -47.61811 37176 ft 484 kts 27°
2026-05-03 20:49 -25.90109 -47.57479 37181 ft 485 kts 27°
2026-05-03 20:50 -25.84585 -47.53101 37180 ft 484 kts 26°
2026-05-03 20:50 -25.79101 -47.48767 37183 ft 484 kts 27°
2026-05-03 20:51 -25.73640 -47.44453 37186 ft 485 kts 26°
2026-05-03 20:51 -25.68124 -47.40102 37190 ft 485 kts 26°
2026-05-03 20:52 -25.62620 -47.35766 37184 ft 485 kts 26°
2026-05-03 20:52 -25.57145 -47.31458 37185 ft 485 kts 26°
2026-05-03 20:53 -25.51635 -47.27128 37181 ft 485 kts 26°
2026-05-03 20:53 -25.46153 -47.22821 37185 ft 485 kts 26°
2026-05-03 20:54 -25.40669 -47.18519 37181 ft 484 kts 26°
2026-05-03 20:54 -25.32404 -47.12048 37181 ft 486 kts 26°
2026-05-03 20:55 -25.26880 -47.07724 37176 ft 485 kts 25°
2026-05-03 20:55 -25.21334 -47.03392 37179 ft 487 kts 26°
2026-05-03 20:56 -25.15801 -46.99073 37176 ft 487 kts 25°
2026-05-03 20:56 -25.10111 -46.95122 37175 ft 482 kts 20°
2026-05-03 20:57 -25.04364 -46.91367 37175 ft 480 kts 20°
2026-05-03 20:57 -24.98609 -46.87612 37173 ft 480 kts 20°
2026-05-03 20:58 -24.92885 -46.83866 37176 ft 479 kts 20°
2026-05-03 20:58 -24.87155 -46.80120 37178 ft 479 kts 20°
2026-05-03 20:59 -24.81756 -46.76593 37178 ft 480 kts 21°
2026-05-03 20:59 -24.77068 -46.73529 37179 ft 480 kts 20°
2026-05-03 21:00 -24.72259 -46.70387 37177 ft 479 kts 21°
2026-05-03 21:00 -24.65542 -46.66133 37179 ft 473 kts 16°
2026-05-03 21:01 -24.59561 -46.63366 37180 ft 459 kts
2026-05-03 21:01 -24.53479 -46.61650 37180 ft 444 kts 358°
2026-05-03 21:02 -24.47392 -46.60749 37181 ft 441 kts 355°
2026-05-03 21:02 -24.41319 -46.59945 37181 ft 442 kts 355°
2026-05-03 21:03 -24.35196 -46.59115 37185 ft 441 kts 356°
2026-05-03 21:03 -24.29116 -46.58284 37190 ft 443 kts 356°
2026-05-03 21:04 -24.22983 -46.57446 37193 ft 442 kts 356°
2026-05-03 21:04 -24.16878 -46.56608 37196 ft 441 kts 356°
2026-05-03 21:05 -24.10801 -46.55781 37200 ft 442 kts 356°
2026-05-03 21:05 -24.04675 -46.54945 37200 ft 443 kts 356°
2026-05-03 21:06 -23.98568 -46.54113 37199 ft 441 kts 356°
2026-05-03 21:06 -23.92455 -46.53277 37205 ft 442 kts 356°
2026-05-03 21:07 -23.86294 -46.52010 37212 ft 453 kts
2026-05-03 21:07 -23.80679 -46.50354 37216 ft 455 kts